"Pseudo-MPEC" for C8AY5Y2

Created 2023 Mar 22 14:22:06 UT using Find_Orb

Click here for an explanation of pseudo-MPECs

 
 Astrometry: 
     C8AY5Y2  C2022 07 20tSB@:ji(6`SEjLiAhcSCNQ/XV9[/5UIYD,w[l*Z60#XyA1voXvwUF52
     C8AY5Y2  C2022 07 20t6j^%y-_Cm\X_AmPQJb*kM';i)s?HpNv`ZfqBK;5aMO\t%4EArjnF52
     C8AY5Y2  C2022 07 20y+7]%V+u+[6#u8'jMB=V%l[m7Ve'J?gal-A#BW^3!Pnk$7cZpUpcF52
     C8AY5Y2  C2022 09 02FL('QGn8I:00\3Sm:k[;B)a@JZj%*-%16,b7!ao1KQxXy8J4.F=oF52
     C8AY5Y2  C2022 09 02F^sZ(R?6WPc8=lX4W*?VrHf,VfJ%fbx!j*@ZaJ`%b$C.61ftQB7#F52
     C8AY5Y2*1C2022 11 02.06454517 59 44.891+43 39 19.58   ~BEFq 20.62GVNEOCPG96
     C8AY5Y2 1C2022 11 02.07034217 59 44.977+43 39 16.70   ~BEFq 21.55GVNEOCPG96
     C8AY5Y2 1C2022 11 02.07615517 59 45.053+43 39 14.04   ~BEFq 21.07GVNEOCPG96
     C8AY5Y2 1C2022 11 02.08195117 59 45.089+43 39 11.30   ~BEFq 20.80GVNEOCPG96
     C8AY5Y2 KC2022 11 02.15618617 59 46.028+43 38 38.54   ~B24b 21.00GVNEOCPI52
     C8AY5Y2 KC2022 11 02.16384417 59 46.072+43 38 35.63   ~B24b 20.54GVNEOCPI52
     C8AY5Y2 KC2022 11 07.07290718 00 56.502+43 04 28.45   ~B737 20.88GVNEOCPI52
     C8AY5Y2 KC2022 11 07.09398718 00 56.844+43 04 20.17   ~B737 21.06GVNEOCPI52
     C8AY5Y2 KC2022 11 07.11510118 00 57.172+43 04 11.60   ~B737 20.91GVNEOCPI52
     C8AY5Y2 DC2022 11 12DW0UDZZdB3e2=_mY/-^Ke'Zmvxv3!@k1uiE0SgwsTn2!MB.1GNm[695
     C8AY5Y2 DC2022 11 12P:581n9,_%[(Jk5lBbF7u!q/*]QTgkin]!bPa!UB]Z4rL05L!0Mt695
     C8AY5Y2 DC2022 11 12'6$yN/S;Twc7R%g9w[=WIj]Z%/556/pL3Iv#pPTYg,9/y?,Z7=*'695
     C8AY5Y2 |C2022 11 16,cSuycE%PnMKv#%/EeHTdB:EYW):1GNTO'qt,HhfO:b,sLQ_N_#JH06
     C8AY5Y2 |C2022 11 16y]0+wu,w#;L*2kZCWc7tp0FGIN-'y`)\KiZFO1$j8.#8y7[W!rQqH06
     C8AY5Y2 KC2022 11 26]Qr`%Yg$@q;E`uk5`oZxX]k1NBOSs6$sv^RbL5#qOR=9fxkx[60dL01
     C8AY5Y2 KC2022 11 26=R9pn`*A6hMT+CbKroB7b/5S-Kjq5aJ(W*PqhqAstrometry-1EpL01
     C8AY5Y2 2C2023 01 21y_XJ2MmI5V8C==g5,N95+CeVe7=v\Yl[s%_+,R.Bb?,oJZ.9?+YOJ04
     C8AY5Y2 KC2023 02 02pplG,L9gyL*KYlGul@UdLJ5`2(Y=a.hW5=(*%!1cLDUMsmOfsy!3U94
     C8AY5Y2 KC2023 02 022*l)EqW`t[iY`jjJphYCa[j6H=jIP-B+-BWdv=^W,=rPaBFO!Ck7U94
     C8AY5Y2 KC2023 02 153[_PKbMJ3WxjAu-Y,nw$D^khVh3mnR,@ngmiuhJ=XvIM(Je(o-88L06
     C8AY5Y2 KC2023 02 15@+:57U,gJW]y-p?F?ysG$9*sFB1A(%VseYGg*X$^W2Ts+!9+N:/g204
     C8AY5Y2 KC2023 02 15D\hAH/I'eva*V/q:gvxEbRrG-eR\;IJxkkn'?EiI!Ru;?Km3Ek4-L06
     C8AY5Y2 KC2023 02 15Vgi\(laZ^,Z^UX_'!7p0McO:b@OoPp^3R+N3iZG'5=_iAj9C`JK#L06
     C8AY5Y2 KC2023 02 15S?fMH[#tjK%8HS_)BWi2Y0VM-=w2t*R`WBZspKDOC\wvu?RI+2Ya204
     C8AY5Y2 KC2023 02 16_AX6SS@+9w`513_6W44m10hl)u;haOPFp.6I;0//aIDr\^cmrw`^W62
     C8AY5Y2 KC2023 02 16a(Pk#k3d@cdjLngdWvKuxYa/Q8o5yw?D!1X?+A*vG^D5I!et'`rCW62
     C8AY5Y2 KC2023 02 16s3R%K!n%x4ISE's*##ZJa$9d%%_,?1)9y5$62)5SBy4;*krdp4i/W62
     C8AY5Y2 KC2023 02 17xnh7U.I8GN?d+0S,=v++kiwdTmxwVPEEh-k9.mAMs+2]_r5$`m7DA77
     C8AY5Y2 KC2023 02 17!*vx:MD9;xF,kTS2[Lrnd1fFD$l;%my!Fn(D-CvT)Bb\.Dcl'72EA77
     C8AY5Y2 KC2023 02 177WJr#?wJ?Rpg[ntXk(b3kxui;[Bmmh_$lW'1.R*:HquqF.Np)?H$U94
     C8AY5Y2 KC2023 02 17.dC`N7N3;tjw`ROjlQBHbPd6m0rrfR'-/9*]yjiN4\PX(lbG)b:mU94
     C8AY5Y2 :C2023 02 27dfe+?[2yhA9k%Pjo@s*VS4h['P(d8wWVcv;\XM6FI)kNY6xS/(/b950
     C8AY5Y2 :C2023 02 27pwww'asWrPtok1MsGMvPs$//c^LZU$WR+7n%Hf/C[TTbMUj#+c(n950
     C8AY5Y2 KC2023 03 12L*1DC^$x5*redacted;!'xO?5LjZ=q5au@JWiv;@^8x\TgAVn?6x104
     C8AY5Y2 KC2023 03 12^$9J_0utqJoA'^qC8k'Qi_V_;%X,W=2[0\t@1Ik\2cV],nNhEq`+104
     C8AY5Y2 KC2023 03 14.09078 19 19 12.170+55 56 56.18   ~3E3M 19.6 GVNEOCPI81
     C8AY5Y2 KC2023 03 14.10133 19 19 12.355+55 57 09.97   ~3E3M 20.0 GVNEOCPI81
     C8AY5Y2 KC2023 03 14.12262 19 19 12.744+55 57 38.48   ~3E3M 19.5 GVNEOCPI81
     C8AY5Y2 KC2023 03 15'E,W`cNry^.sX@BI:5?prL?nq.IyS$_dd#9click7wEO0?LYufo;L38
     C8AY5Y2 KC2023 03 157AA0B5NmCRFPV,nt/-1e+1:o*fN-wuD?.;+\.(4UXD;LsJ4*5so)L38
     C8AY5Y2 KC2023 03 16hTp4#n/!gK/(VEj^ZypX:vQ06-)_7q9ahM6\?#-(+=MO!a)K@wHKW62
     C8AY5Y2 KC2023 03 162aIG:g`!/h?EJ82t-)H7_c@0]=2/3Ep7;=Q\X-FLk$?nj9Ut;FY%W62
     C8AY5Y2 KC2023 03 16fib^Kq!B.9`xKGxKsDPll@,GnGHM4qCrsnjNjRj*8B/_A53e?%W_W62
     C8AY5Y2 KC2023 03 17eX.3[moR6A%+eSuwY0tiJo$]ZCk\\#jI^S2St88`E3XCGh=j8fnOG15
     C8AY5Y2 KC2023 03 17FkFk'(HLQ,Rm9dhV8(`yMNp=g\e\0bhere'7DO=u6oiO4C=j\EFbG15
     C8AY5Y2 KC2023 03 17+yiZo`!+for%=giZn$xxT4mwc[@'LfLaFu!G'noR=P1;NeOub81(106
     C8AY5Y2 KC2023 03 17s7_T=#@C?@?@A!9HpleWZ(v/X^i@OZ%]w]#AVC:vd:wXbHJ([b+W106
     C8AY5Y2 KC2023 03 19L=o(,51@oo=,L^bpR^4l6l/^pk:Q-ybYW;mMBv`HHxdr+HaQ8S`vQ21
     C8AY5Y2 KC2023 03 19$+k/9jrLaOhcvo`lE:mR$f]'M5?ZOp8[aHt+@FlIhV7pl\paPHepQ11
     C8AY5Y2 KC2023 03 19,Fwu@1J6J+QrY\lZ);9o:/bv%IMhP3explanation5M.U_3Ecv[RQ11
     C8AY5Y2 KC2023 03 192M2;BhT8(cTYB#_JE67Z=FiV34?+dT]Q[Il$8!p@$S;[9e);*15sQ11
     C8AY5Y2 KC2023 03 19PA7+Xhf(5Dtjnn.rHI-;h4xkOxG3c7,:XDy6f?r!lkfaT9cWF$FZQ21
     C8AY5Y2 KC2023 03 19kcTlw)]2;'1,H*$IKoif#(OZNSZ/U%rcLI'U-9qh$#6c[:e`cTLfQ21
     C8AY5Y2 KC2023 03 21\!1T5tc:F'fJ.vWmEZJ6C_P/F9=rYNYe\n9Fc9'Oc5%@kL@LvVI6106
     C8AY5Y2 KC2023 03 21`X\yv.XP\ko?`.?#!FRe52_[^Y-550KOiaN?o`I,,%FxI'DUF3g,106
     C8AY5Y2 KC2023 03 22HLe/aU@f*cM3(vM+\Y#a%)_Nd]*1KKqsw\)8kI$P2Qcn(jSdJV)_106

Station data:
(104) San Marcello Pistoiese  (N44.064178 E10.803750)  Italy.  Observers P.
   Bacci, M. Maestripieri. Measurers P. Bacci, L. Tesi, G. Fagioli. 0.60-m
   reflector + CCD.
(106) Črni Vrh  (N45.945905 E14.071100)  Slovenia.  Observer J. Skvarč. 0.6-m
   f/3.3 Deltagraph + CCD.
(204) Schiaparelli Observatory  (N45.867930 E8.770800)  Italy.  Observer L.
   Buzzi. 0.60-m f/4.64 Newtonian + CCD0.84-m f/3.5 reflector + CCD.
(695) Kitt Peak  (N31.958395 W111.594670)  US/Arizona. Measurer S. Deen.
   3.5-m f/1.75 reflector + CCD0.9-m f/7.5 reflector + CCD4.0-m
   Ritchey-Chrétien + CCD0.61-m f/3.5 Schmidt + CCD2.3-m f/9 reflector + CCD.
(950) La Palma  (N28.760220 W17.882400)  Canary Islands (Spain).  Observers
   O. Vaduvescu, R. Ashley, P. Massana, C. Celma, M. Monelli, M. Rodriguez,
   M. Rodriguez-Alarcon. Measurers C. Boldea, O. Vaduvescu. 2.5-m f/3.3
   reflector + CCD.
(A77) Observatoire Chante-Perdrix, Dauban  (N43.999790 E5.646930)  France.
   Observers F. Kugel, J.-G. Bosch. 0.4-m f/2.8 reflector + CCD0.2-m f/5.7
   reflector + CCD0.2-m f/5.6 reflector + CCD.
(F52) Pan-STARRS 2, Haleakala  (N20.707382 W156.255910)  US/Hawaii.
   Observers J. Bulger, T. Dukes, T. Lowe, A. Schultz, M. Willman. Measurers
   K. Chambers, S. Chastel, T. de Boer, L. Denneau, J. Fairlamb, H.
   Flewelling, M. Huber, C.-C. Lin, E. Magnier, Y. Ramanjooloo, R. Wainscoat,
   R. Weryk. 1.8-m Ritchey-Chrétien + CCD.
(G15) Magroforte Observatory, Alessandria  (N44.772005 E9.118300)  Italy.
   Observer A. De Pieri. 0.25-m f/6.7 Schmidt-Cassegrain + CCD.
(G96) Mt. Lemmon Survey  (N32.442751 W110.788720)  US/Arizona.  Observers T.
   A. Pruyne, B. M. Africano, E. J. Christensen, G. A. Farneth, D. C. Fuls,
   A. R. Gibbs, A. D. Grauer, H. Gröller, J. A. Johnson, R. A. Kowalski, S.
   M. Larson, G. J. Leonard, D. Rankin, R. L. Seaman, F. C. Shelly, K. W.
   Wierzchoś. 1.5-m reflector + 10K CCD.
(H06) RAS Observatory, Mayhill  (N32.903322 W105.528700)  US/New
   Mexico.  Observer H. Sato. 0.43-m f/6.8 astrograph + CCD + f/4.5 focal
   reducer0.25-m f/3.4 reflector + CCD0.50-m f/6.8 reflector + CCD + f/4.5
   focal reducer0.10-m f/5.0 astrograph + CCD.
(I52) Steward Observatory, Mt. Lemmon Station  (N32.442544 W110.788920)
   US/Arizona.  Observers T. A. Pruyne, B. M. Africano, E. J. Christensen, G.
   A. Farneth, D. C. Fuls, A. R. Gibbs, A. D. Grauer, H. Gröller, J. A.
   Johnson, R. A. Kowalski, S. M. Larson, G. J. Leonard, D. Rankin, R. L.
   Seaman, F. C. Shelly, K. W. Wierzchoś. 1.0-m reflector + CCD.
(I81) Tarbatness Observatory, Portmahomack  (N57.844122 W3.798890)
   UK/Scotland.  Observer D. Buczynski. 0.35-m f/6.0 Schmidt-Cassegrain + CCD.
(J04) ESA Optical Ground Station, Tenerife  (N28.300921 W16.511830)  Canary
   Islands (Spain).  Observer D. Abreu. Measurers M. Micheli, D. Koschny, E.
   Schwab, M. Busch, A. Knöfel. 1.0-m f/4.4 reflector + CCD.
(L01) Višnjan Observatory, Tičan  (N45.290897 E13.749300)  Croatia.
   Observers K. Korlević, D. Pujagic, V. Dobos. Measurers D. Pujagic, K.
   Korlević. 1.0-m f/2.9 reflector + CCD.
(L06) Sormano 2 Observatory, Bellagio Via Lattea  (N45.970100 E9.254030)
   Italy.  Observer G. Ventre. Measurers G. Ventre, P. Sicoli. 0.28-m f/10
   reflector + CCD.
(L38) Gartensternwarte Schafsweide, Sehlde  (N52.095274 E9.699970)  Germany.
(Q11) Shinshiro  (N34.984297 E137.520690)  Japan.  Observer T. Ikemura.
   Measurer H. Sato. 0.35-m f/5 reflector + CCD.
(Q21) Southern Utsunomiya  (N36.507357 E139.853350)  Japan.  Observer H.
   Nohara. 0.4-m f/3.8 astrograph + CCD.
(U94) iTelescope Observatory, Beryl Junction (Sato)  (N37.737780 W113.697500)
    US/Utah.
(W62) Comet Hunter Observatory2, New Ringgold  (N40.745185 W75.862390)
   US/Pennsylvania.  Observer J. Maikner. 0.30-m f/3.8 Riccardi-Honders + CCD.

Orbital elements:  C8AY5Y2
   Perihelion 2023 Nov 1.94392 +/- 0.00361 TT = 22:39:14 (JD 2460250.44392)
Epoch 2023 Mar 22.0 TT = JDT 2460025.5                           AutoNEOCP
M 359.00567106 +/- 0.00043          (J2000 ecliptic)
n   0.00442034 +/- 1.88e-6          Peri.  168.95328 +/- 0.00020
a  36.7704407 +/- 0.0104            Node   332.86769 +/- 0.00010
e   0.9438800 +/- 1.63e-5           Incl.   98.90722 +/- 0.000029
P 222.97                   H 13.81  G  0.15   U  3.9
q 2.06355415 +/- 1.72e-5    Q 71.4773272 +/- 0.0209
58 of 61 observations 2022 July 20-2023 Mar. 22; mean residual 0".32
Residuals in arcseconds: 
220720 F52  .09-  .05-    230121 J04  .26-  .02-    230314 I81  .33-  .07+    
220720 F52  .09-  .00     230202 U94  .21-  .07-    230315 L38  .33-  .26+    
220720 F52  .06+  .04+    230202 U94  .33+  .25+    230315 L38  .57+  .26+    
220902 F52  .16+  .01-    230215 L06  .39+  .50-    230316 W62  .39-  .07-    
220902 F52  .06+  .08+    230215 204  .09-  .25-    230316 W62  .19-  .13-    
221102 G96  .36-  .48+    230215 L06  .31+  .11-    230316 W62  .31-  .00     
